Lapse_Rate
6.1 6.0 5.8 5.7 5.5 5.4 5.3 5.3 5.3 5.4 5.5 5.6 5.7 5.8 5.9 6.0 6.0 6.0 6.0 5.9 5.9 5.9 5.8 5.7 5.8 5.8 5.8 5.8 5.4 5.2 5.1 5.1 5.2 5.2 5.1 5.1 5.0 4.9 4.6 4.6 4.4 4.8 5.0 4.9 5.0 5.2 5.2
6.1 5.9 5.7 5.6 5.4 5.3 5.2 5.2 5.4 5.5 5.6 5.7 5.7 5.8 6.0 6.1 6.2 6.4 6.4 6.3 6.0 5.8 5.8 5.8 5.9 5.9 5.8 5.7 5.5 5.3 5.3 5.2 5.3 5.2 5.2 5.1 5.0 4.9 4.9 4.8 4.8 4.7 4.9 5.0 4.9 5.2 5.2
6.0 5.8 5.7 5.5 5.4 5.4 5.5 5.5 5.6 5.7 5.8 5.8 5.8 5.9 5.9 6.1 6.3 6.4 6.4 6.4 6.1 5.9 5.9 5.9 5.9 5.9 5.8 5.6 5.4 5.4 5.4 5.3 5.3 5.2 5.2 5.1 5.1 5.1 5.0 5.0 5.0 5.0 5.0 4.9 5.2 5.1 5.1
6.0 5.8 5.6 5.5 5.4 5.4 5.5 5.7 5.8 5.9 5.9 5.9 6.0 6.0 6.2 6.2 6.3 6.4 6.5 6.4 6.3 6.1 5.9 5.7 5.7 5.7 5.7 5.6 5.6 5.5 5.5 5.4 5.3 5.3 5.2 5.2 5.2 5.2 5.2 5.1 5.1 5.1 4.8 5.0 5.0 4.9 5.2
5.8 5.7 5.7 5.6 5.5 5.6 5.7 5.9 6.1 6.2 6.2 6.2 6.2 6.2 6.2 6.2 6.2 6.3 6.3 6.2 6.1 6.0 5.8 5.6 5.6 5.7 5.6 5.5 5.5 5.4 5.3 5.4 5.4 5.4 5.3 5.3 5.2 5.1 5.1 5.0 4.9 4.8 5.0 5.1 5.1 5.2 5.0
5.8 5.8 5.9 5.7 5.8 5.8 5.9 6.1 6.2 6.4 6.4 6.4 6.4 6.4 6.3 6.2 6.3 6.3 6.1 6.1 6.0 5.9 5.8 5.6 5.7 5.6 5.5 5.5 5.3 5.2 5.3 5.4 5.5 5.4 5.5 5.5 5.3 4.7 5.1 5.4 5.0 5.0 4.9 4.9 5.2 5.2 5.2
5.7 5.8 5.8 5.8 5.9 5.9 6.0 6.2 6.3 6.4 6.5 6.6 6.5 6.6 6.5 6.4 6.4 6.3 6.2 6.0 6.0 5.9 5.7 5.7 5.6 5.5 5.5 5.3 5.3 5.3 5.3 5.4 5.5 5.7 5.1 5.0 5.0 5.2 5.3 5.3 5.3 5.1 4.8 5.2 5.4 5.4 5.2
5.7 5.7 5.7 5.7 5.9 6.0 6.1 6.2 6.4 6.5 6.6 6.7 6.7 6.8 6.7 6.6 6.5 6.4 6.2 6.1 5.9 5.8 5.6 5.6 5.6 5.6 5.5 5.4 5.3 5.1 5.3 5.5 5.4 5.3 5.2 5.0 5.2 5.2 5.4 5.7 5.5 5.2 5.2 5.2 5.4 5.1 5.0
5.6 5.7 5.7 5.8 6.0 6.2 6.3 6.3 6.5 6.5 6.7 6.7 6.8 6.8 6.6 6.6 6.5 6.4 6.3 6.1 5.9 5.6 5.6 5.7 5.5 5.5 5.5 5.4 5.4 5.4 5.4 5.5 5.5 5.5 5.4 5.4 5.3 5.4 5.5 5.4 5.5 5.4 5.4 5.2 4.9 5.5 5.7
5.7 5.7 5.7 5.8 6.0 6.1 6.3 6.4 6.5 6.5 6.5 6.6 6.6 6.6 6.5 6.6 6.6 6.6 6.4 6.2 6.0 5.6 5.5 5.5 5.6 5.5 5.5 5.5 5.7 5.6 5.6 5.7 5.8 5.6 5.4 5.3 5.4 5.5 5.4 5.0 5.4 5.5 5.5 5.4 5.2 5.1 5.1
5.8 5.8 5.8 5.9 6.0 6.0 6.1 6.2 6.4 6.4 6.5 6.5 6.5 6.5 6.5 6.6 6.7 6.7 6.7 6.5 6.2 5.8 5.4 5.5 5.5 5.5 5.5 5.6 5.7 5.7 5.6 5.8 5.7 5.6 5.4 5.4 5.3 5.4 5.5 5.4 5.4 5.6 5.9 5.7 5.3 5.3 4.9
5.8 5.9 5.8 5.8 5.8 5.8 5.9 6.1 6.2 6.2 6.3 6.3 6.4 6.4 6.5 6.7 6.8 6.8 6.7 6.6 6.3 5.8 4.9 5.6 5.6 5.5 5.6 5.6 5.6 5.6 5.8 5.8 5.8 5.8 5.7 5.5 5.4 5.6 5.5 5.5 5.5 5.5 6.0 6.1 5.5 5.6 4.8
5.7 5.8 5.7 5.8 5.8 5.8 5.7 5.9 6.0 6.1 6.1 6.2 6.2 6.3 6.6 6.8 6.8 6.8 6.7 6.5 6.0 5.7 5.7 5.6 5.5 5.5 5.6 5.6 5.7 5.7 5.8 5.8 5.5 5.6 5.3 5.4 5.4 5.7 5.6 5.7 5.6 5.5 6.1 5.8 5.0 4.9 5.3
5.6 5.8 5.9 5.9 5.9 5.8 5.7 5.8 5.8 5.9 5.9 5.9 6.1 6.3 6.4 6.5 6.6 6.7 6.6 6.3 6.0 5.8 5.8 5.6 5.5 5.6 5.5 5.5 5.6 5.5 5.2 4.9 5.4 5.2 5.3 5.0 5.3 5.6 5.6 5.6 5.4 5.6 5.6 5.6 5.1 5.1 5.1
5.9 5.8 5.8 5.8 6.0 5.9 5.8 5.8 5.8 5.8 5.8 5.8 5.9 6.0 6.1 6.3 6.5 6.5 6.5 6.5 6.1 5.9 5.7 5.6 5.6 5.2 5.1 5.5 5.5 5.5 5.4 5.4 5.4 5.4 5.3 5.3 5.5 5.7 5.9 6.0 5.9 5.5 5.6 5.5 5.2 5.5 5.2
5.9 5.8 5.7 5.8 5.9 5.9 5.9 5.9 5.9 5.8 5.8 5.9 5.9 6.0 6.1 6.2 6.3 6.4 6.4 6.4 6.2 6.1 5.9 5.8 5.5 5.6 5.6 5.6 5.5 5.4 5.4 5.4 5.4 5.3 5.2 5.0 5.2 5.8 5.8 6.1 6.1 5.8 5.7 5.6 5.6 5.3 5.2
5.6 5.5 5.6 5.8 5.9 6.0 6.0 5.9 5.9 5.9 5.9 5.9 5.9 6.0 6.1 6.1 6.2 6.2 6.3 6.2 6.1 6.0 6.0 5.9 5.8 5.7 5.6 5.7 5.7 5.5 5.4 5.6 5.4 5.2 5.0 5.2 4.8 6.2 5.7 5.8 5.8 5.7 5.7 5.8 5.7 5.9 5.5
5.4 5.5 5.6 5.8 5.8 5.9 5.9 6.0 6.0 6.0 6.0 6.0 6.0 6.0 6.0 6.0 6.1 6.2 6.2 6.1 6.1 6.1 6.0 6.0 5.9 5.8 5.6 5.5 5.5 5.6 5.7 5.5 5.5 5.2 4.7 4.9 4.5 4.9 6.1 6.0 6.2 6.0 6.0 6.0 5.9 6.3 5.8
5.3 5.4 5.3 5.5 5.9 6.0 6.0 6.0 6.1 6.1 6.0 6.0 5.9 6.1 6.1 6.0 5.9 6.1 6.0 6.1 6.2 6.2 6.1 6.0 5.8 5.7 5.6 5.5 5.4 5.5 5.7 5.8 5.6 5.4 4.8 4.3 4.0 4.2 5.5 5.6 5.7 5.7 5.6 5.7 5.6 5.7 5.4
5.4 5.4 5.6 5.6 5.7 6.1 6.0 6.0 6.1 6.2 6.1 5.9 5.9 5.9 6.1 6.1 6.0 6.0 6.1 6.2 6.1 6.1 6.1 6.0 5.9 5.8 5.7 5.7 5.7 5.7 5.7 5.0 5.4 5.3 5.0 4.4 4.1 4.5 5.5 5.8 5.7 5.5 6.1 5.6 5.4 5.3 5.4
5.6 5.6 5.6 5.8 6.1 6.2 6.3 6.1 6.2 6.2 6.3 6.1 5.8 6.0 5.9 6.0 6.1 6.0 6.0 6.0 6.0 6.0 6.0 5.9 5.8 5.7 5.5 5.4 5.1 5.4 5.4 5.3 4.7 4.6 5.0 4.8 4.4 4.5 4.6 4.6 4.9 5.1 6.3 7.1 6.0 6.8 5.2
5.9 6.1 6.1 6.1 6.3 6.3 6.4 6.2 6.2 6.3 6.1 6.1 6.0 5.9 5.9 5.9 5.9 5.8 5.8 5.9 5.8 5.8 5.7 5.8 5.8 5.5 5.5 5.6 5.3 5.3 5.3 5.1 4.7 4.6 4.7 4.5 4.8 4.6 4.5 4.7 4.7 4.6 6.6 6.4 5.8 6.9 6.4
5.7 6.1 6.1 6.3 6.5 6.5 6.5 6.4 6.2 6.2 6.1 6.2 6.1 5.8 5.7 5.9 6.1 6.0 6.0 6.0 5.9 5.9 5.8 5.9 5.7 5.6 5.6 5.5 5.3 5.3 5.4 5.1 5.1 5.0 4.9 4.6 4.8 4.7 4.5 4.7 4.6 4.9 6.6 6.6 7.0 7.1 7.1
5.6 5.8 6.2 6.5 6.5 6.6 6.6 6.7 6.4 6.2 6.1 6.1 6.2 6.0 5.7 5.6 5.9 6.1 6.2 6.0 6.2 6.1 5.9 5.8 5.9 5.7 5.6 5.5 5.5 5.4 5.5 5.4 5.2 5.6 5.1 5.1 4.8 4.8 4.7 4.7 4.5 6.3 6.6 6.8 7.2 6.8 6.7
5.4 5.8 5.7 5.9 6.2 6.5 6.3 6.5 6.4 6.4 6.2 6.2 6.1 5.9 5.7 5.5 5.5 6.1 6.2 6.1 6.0 6.0 6.0 5.8 5.9 5.8 5.6 5.5 5.4 5.1 5.2 4.9 4.9 4.9 5.5 5.6 5.1 5.2 5.1 5.2 5.4 6.0 6.7 6.6 6.6 6.2 6.6
5.3 5.5 5.8 5.8 5.7 6.0 6.1 6.2 6.3 6.4 6.4 6.1 6.0 5.9 5.8 5.8 5.9 6.0 6.1 6.1 6.1 6.0 5.9 5.7 6.0 5.9 5.6 5.4 5.1 4.6 4.9 5.3 4.9 5.1 5.6 5.8 5.5 5.2 5.3 5.3 5.4 6.5 6.6 6.4 6.6 6.1 6.4
5.4 5.6 5.7 5.7 5.9 5.8 6.0 6.0 6.1 6.2 6.2 6.2 5.9 5.7 5.8 5.6 5.9 5.7 5.8 5.8 5.9 5.9 5.6 5.5 5.3 5.3 5.2 5.3 5.1 4.6 4.9 5.0 4.9 5.3 5.5 5.6 5.6 5.4 5.8 5.4 5.6 6.0 6.3 6.6 6.0 6.1 5.7
5.5 5.4 5.4 5.9 5.8 5.7 5.6 5.8 5.6 5.7 5.6 5.9 5.8 5.5 5.5 5.3 5.4 5.6 5.9 5.7 5.9 5.8 5.9 5.6 5.2 5.0 5.2 5.2 5.2 5.1 4.8 5.0 4.9 5.3 5.7 5.5 5.6 5.3 5.2 5.1 5.5 5.8 6.1 6.2 6.1 6.1 6.0
5.4 5.3 5.3 5.3 5.5 5.4 5.6 5.6 5.5 5.6 5.3 5.5 5.3 5.6 5.5 5.3 5.0 5.6 5.6 6.0 6.0 5.7 5.3 5.6 5.4 5.2 5.3 5.1 5.3 5.2 5.1 5.1 4.9 4.8 5.1 5.3 5.6 5.7 5.6 5.9 6.4 6.1 6.3 6.2 6.1 5.7 5.4
Wind_Speed
12 13 14 15 15 16 17 19 20 21 22 23 22 23 24 23 20 18 13 7 7 6 6 5 4 5 3 5 5 10 14 12 8 6 10 7 9 6 6 4 6 7 4 3 6 2 2
12 13 13 14 15 15 17 19 20 21 22 24 23 23 23 24 22 19 12 7 6 6 5 5 5 6 4 5 5 11 8 8 9 8 9 9 5 6 4 5 6 4 2 5 4 3 1
11 12 13 14 15 17 16 18 20 21 22 23 24 24 24 24 23 19 10 7 5 4 4 4 5 3 11 4 4 7 7 2 5 6 5 5 5 5 6 4 2 3 4 6 7 6 1
11 12 13 14 16 18 18 18 19 21 23 24 25 25 25 24 23 18 9 5 5 5 5 5 6 3 4 1 6 7 8 1 4 4 2 3 5 2 3 1 4 4 4 3 7 7 4
10 11 12 14 16 18 18 19 21 22 24 25 25 25 25 24 23 18 9 5 6 7 6 6 3 3 4 2 2 7 5 5 5 2 1 3 4 2 2 4 3 4 5 9 1 8 6
8 11 12 15 17 18 18 20 21 22 22 22 22 25 25 25 24 19 9 4 6 7 6 5 4 2 3 4 4 5 5 5 3 6 3 3 3 0 6 6 4 8 6 8 7 4 4
9 12 13 14 17 19 20 21 22 22 23 23 24 25 24 26 24 19 9 3 2 1 7 5 4 3 3 6 1 5 3 5 5 5 4 3 5 6 7 6 6 6 8 9 6 5 2
10 11 12 14 15 16 18 20 21 22 23 24 24 24 25 25 22 19 4 4 3 3 4 1 1 4 1 2 3 10 12 4 5 5 7 0 5 5 5 5 6 9 8 7 3 3 8
10 12 12 14 15 17 19 20 20 21 22 23 25 25 27 24 15 4 7 4 4 4 1 2 2 3 2 5 3 7 9 6 4 6 7 4 3 3 5 6 8 8 6 7 7 12 9
10 11 12 13 16 18 18 19 20 20 22 24 25 26 27 26 2 2 3 4 2 3 3 4 2 2 1 2 2 2 4 1 1 4 6 3 3 4 7 3 6 4 5 7 8 7 4
10 11 13 14 15 16 17 18 18 19 21 23 24 26 24 14 4 3 4 4 2 2 2 3 2 1 3 3 6 0 1 3 4 5 3 1 3 4 6 3 4 7 9 9 3 4 6
10 11 11 13 14 14 15 16 18 19 21 22 23 26 24 2 3 2 4 2 2 2 3 2 1 5 2 5 2 6 1 3 0 3 5 1 3 1 4 7 6 10 10 9 5 1 1
11 11 10 11 10 11 14 15 18 19 20 22 23 19 8 8 2 5 4 2 2 4 3 2 3 4 6 4 2 4 2 6 5 6 5 5 4 3 2 6 2 8 7 4 4 2 4
14 12 11 10 10 9 12 15 17 19 21 24 27 14 0 2 4 3 2 1 3 1 4 2 2 6 2 5 2 5 6 3 8 6 4 4 4 3 3 3 3 5 3 2 4 3 6
14 11 10 9 8 10 13 15 18 20 23 26 24 3 2 3 0 2 2 4 2 4 2 5 3 4 3 3 2 4 4 3 4 7 5 6 3 3 3 1 2 3 2 1 4 6 2
13 12 10 10 8 11 13 15 18 20 23 23 4 3 1 3 1 1 1 3 2 2 2 2 3 1 3 6 5 6 2 2 3 4 5 2 6 2 3 2 2 2 2 1 2 4 5
11 11 11 11 10 11 11 14 17 20 24 19 3 3 1 4 1 1 3 3 3 3 3 3 3 3 2 3 3 4 1 3 0 3 3 1 2 5 1 5 2 2 2 3 1 2 3
11 11 11 12 11 11 11 11 14 17 27 3 3 2 1 3 1 1 2 3 2 2 2 1 2 2 3 4 4 2 2 2 5 1 2 2 3 4 7 5 5 3 3 3 1 3 3
10 12 11 12 12 11 10 10 10 12 14 4 3 2 2 1 2 3 2 3 1 3 2 1 1 0 3 2 3 4 3 4 4 2 3 3 2 4 1 1 3 2 4 5 6 3 5
13 13 13 13 11 12 11 8 8 8 10 3 3 2 1 2 1 3 2 2 3 1 2 1 1 0 1 4 7 4 2 3 3 3 4 3 4 6 7 6 8 8 12 8 9 5 6
16 16 15 14 12 12 11 9 7 6 9 2 1 1 1 1 2 2 0 2 3 3 3 3 3 6 4 4 5 6 6 3 8 8 5 3 5 9 13 12 12 17 21 17 14 18 11
17 17 17 16 14 12 11 10 8 6 8 2 2 1 2 1 0 3 4 5 5 3 4 4 5 3 7 5 6 10 8 5 5 5 4 4 4 2 5 13 15 13 20 20 16 18 17
19 18 18 17 14 12 12 10 9 6 3 2 2 0 2 3 4 3 5 5 6 4 7 4 4 5 7 7 5 6 7 6 8 7 5 5 2 0 9 2 5 10 11 4 6 6 6
22 20 18 17 15 13 12 11 10 9 7 3 2 2 2 3 5 5 3 4 8 9 3 4 6 5 1 4 7 9 12 15 13 12 8 5 4 1 5 4 4 6 3 1 3 6 6
21 21 19 18 15 14 13 11 10 9 8 2 2 2 2 4 5 7 8 5 4 6 4 5 6 1 3 2 3 5 4 3 0 7 4 2 5 3 3 5 11 13 2 2 2 2 6
23 22 20 18 17 14 14 13 12 10 10 3 3 1 3 3 4 6 2 7 4 5 5 7 4 3 1 2 1 3 4 1 3 1 3 2 2 4 3 5 5 1 1 2 2 3 9
22 22 20 18 18 16 15 15 12 11 12 6 2 5 2 3 4 3 4 4 4 3 2 4 5 3 2 3 3 4 5 4 4 4 5 3 2 9 10 7 8 2 3 2 0 2 8
22 22 21 19 18 17 15 13 13 11 13 8 1 8 2 2 4 3 3 1 1 1 3 2 3 2 3 3 3 4 3 3 2 4 6 7 6 5 4 5 8 2 1 1 2 3 4
23 23 22 21 18 16 14 13 12 11 12 14 2 4 5 2 3 3 5 6 4 5 1 5 3 4 4 3 1 1 3 2 2 5 1 4 7 3 8 4 3 3 1 5 3 2 4
Wind_Direction
53 47 41 35 28 22 16 12 9 5 3 360 357 356 356 355 352 352 351 10 37 55 60 55 42 358 283 86 43 1 359 0 350 338 16 352 23 342 39 42 4 81 98 70 75 103 39
47 42 36 30 23 18 17 13 7 3 1 359 357 353 353 354 351 354 359 22 41 57 52 24 356 336 255 74 311 359 14 7 11 350 38 25 19 318 61 32 24 358 112 113 171 167 170
44 36 29 23 17 12 10 6 3 2 360 357 356 355 353 354 355 358 10 16 19 18 20 351 336 305 60 81 323 327 356 68 7 9 41 25 326 32 307 127 304 149 208 192 194 195 279
34 28 22 16 11 7 5 2 1 359 359 357 355 353 353 353 353 355 355 353 337 326 320 316 315 288 75 122 312 6 2 9 64 36 29 343 324 83 6 167 208 246 217 268 128 182 129
30 22 17 12 10 5 4 360 359 358 357 355 353 351 350 350 349 348 345 320 303 297 278 286 271 255 74 163 343 359 11 343 295 169 347 287 287 8 223 251 232 229 347 355 119 178 145
23 16 14 15 9 5 1 358 356 354 351 348 351 350 346 347 342 345 332 284 289 304 240 240 261 160 56 5 346 310 26 295 305 296 217 239 253 263 25 15 19 331 342 326 306 125 214
4 6 7 10 6 360 357 355 354 352 350 350 350 348 346 342 338 341 336 249 242 157 32 46 13 75 38 332 212 26 327 300 215 238 19 31 49 30 4 7 339 301 288 286 354 94 324
352 354 357 1 360 357 358 358 354 353 352 350 347 344 341 338 336 340 300 50 50 345 103 5 160 111 75 325 310 13 341 18 334 22 335 185 71 27 326 269 280 297 310 1 331 352 304
341 350 355 357 359 360 359 354 354 353 352 348 345 341 338 333 330 20 80 53 336 325 235 81 42 32 354 320 52 344 2 314 7 18 355 49 53 309 291 314 357 332 31 345 302 318 271
337 346 354 351 352 356 352 352 353 353 352 349 346 342 337 333 356 324 60 355 329 322 183 23 63 72 260 324 196 302 21 338 199 16 340 59 130 325 309 357 14 301 33 333 316 347 308
331 334 341 345 347 354 349 351 350 351 349 347 346 343 340 355 307 47 341 330 322 262 44 30 34 76 273 56 296 211 208 281 41 331 326 322 15 351 318 24 350 268 332 283 253 299 305
321 325 332 336 342 350 349 347 343 342 347 347 343 343 338 333 93 22 329 291 238 53 296 59 326 350 327 53 77 328 304 224 177 288 215 176 111 297 337 302 254 279 295 291 155 204 314
305 304 314 326 337 345 344 341 339 340 343 342 336 338 350 309 7 342 316 243 36 76 194 53 339 345 308 4 2 5 24 47 29 3 6 315 135 114 283 318 167 345 342 347 359 336 242
294 292 306 322 328 337 335 335 339 340 340 337 328 326 160 81 339 323 225 252 58 122 47 171 258 282 5 358 119 324 343 82 49 346 279 351 332 30 4 54 300 299 349 88 305 325 291
283 283 297 309 316 324 330 334 338 341 341 340 325 180 247 95 57 243 259 58 34 31 352 344 243 279 146 159 240 309 89 50 50 12 21 357 295 160 90 12 19 346 40 23 274 268 243
272 277 290 296 301 317 326 335 339 340 340 344 322 284 123 16 138 258 47 101 111 51 325 242 344 322 320 8 337 7 41 89 116 21 347 17 299 25 135 200 223 265 345 316 271 301 300
259 273 283 290 294 308 320 335 342 344 337 334 274 310 92 92 187 245 55 65 105 81 356 330 357 300 334 345 330 313 16 112 143 131 311 344 194 291 217 202 188 184 239 215 273 269 270
259 269 281 287 289 297 310 329 344 350 340 313 302 291 156 165 355 349 73 28 342 127 194 235 282 317 326 348 297 286 300 60 92 358 292 62 304 282 255 60 58 25 306 318 267 303 259
254 264 272 278 285 291 301 319 334 351 6 320 304 305 203 110 341 101 140 114 311 187 212 201 259 302 46 294 304 222 322 127 134 273 335 121 230 302 262 82 25 237 185 237 298 326 229
263 264 267 269 275 282 291 305 322 337 344 308 295 301 183 72 188 337 166 166 180 176 290 288 319 59 236 246 218 277 261 126 129 216 110 99 240 216 248 287 327 290 282 266 263 254 240
262 262 263 265 266 269 276 283 295 315 330 312 256 70 90 340 103 64 342 45 202 201 228 208 220 235 223 273 267 231 237 226 194 170 180 203 251 239 260 277 276 271 278 273 245 250 250
261 261 264 263 260 261 267 272 274 292 315 257 296 245 186 90 177 258 128 211 217 157 199 194 229 295 214 235 257 300 315 312 259 168 203 155 260 2 272 263 257 270 266 270 247 252 254
260 257 257 257 252 253 257 264 267 261 290 288 87 202 295 141 176 188 205 204 206 148 220 251 231 276 257 259 315 314 299 276 260 264 213 161 234 181 284 360 352 280 259 195 195 209 211
256 252 248 249 249 244 249 254 258 253 243 325 2 320 235 241 197 208 201 212 196 200 240 183 196 228 174 320 302 269 253 251 248 246 235 175 171 155 285 319 237 245 344 279 236 273 294
254 250 244 241 240 245 247 246 245 244 242 271 340 292 276 267 202 238 224 211 217 244 236 247 264 22 89 3 289 300 273 218 41 47 27 334 143 231 249 231 286 277 120 32 18 14 30
248 245 241 239 238 233 242 240 234 226 223 224 278 350 284 311 241 281 202 212 221 220 232 196 93 66 197 231 207 259 253 31 241 97 44 23 301 184 207 255 264 122 69 16 133 249 20
243 241 240 238 237 234 228 234 230 227 217 202 256 200 272 259 251 286 209 194 180 232 253 114 149 150 226 201 225 220 246 207 244 219 176 158 176 223 233 252 277 76 164 218 261 279 358
245 236 233 232 236 234 227 228 238 231 224 186 237 200 208 249 286 295 304 207 27 253 204 146 83 189 158 208 209 233 234 222 286 240 171 175 183 194 207 231 255 165 245 188 4 331 322
248 230 223 221 219 225 224 225 224 225 228 210 221 167 151 222 283 323 299 288 310 322 254 198 202 150 185 191 219 223 241 236 247 267 212 252 190 201 196 213 134 40 112 79 30 315 353